Year,Month,Day,Hour,Minute,Value (Times are PST for temperature in C)
2007,04,27,00,00,10.20
2007,04,27,00,01,10.20
2007,04,27,00,02,10.20
2007,04,27,00,03,10.20
2007,04,27,00,04,10.20
2007,04,27,00,05,10.20
2007,04,27,00,06,10.20
2007,04,27,00,07,10.20
2007,04,27,00,08,10.20
2007,04,27,00,09,10.20
2007,04,27,00,10,10.20
2007,04,27,00,11,10.20
2007,04,27,00,12,10.20
2007,04,27,00,13,10.20
2007,04,27,00,14,10.20
2007,04,27,00,15,10.20
2007,04,27,00,16,10.20
2007,04,27,00,17,10.20
2007,04,27,00,18,10.20
2007,04,27,00,19,10.30
2007,04,27,00,20,10.30
2007,04,27,00,21,10.30
2007,04,27,00,22,10.30
2007,04,27,00,23,10.30
2007,04,27,00,24,10.30
2007,04,27,00,25,10.30
2007,04,27,00,26,10.30
2007,04,27,00,27,10.30
2007,04,27,00,28,10.30
2007,04,27,00,29,10.30
2007,04,27,00,30,10.30
2007,04,27,00,31,10.20
2007,04,27,00,32,10.20
2007,04,27,00,33,10.20
2007,04,27,00,34,10.20
2007,04,27,00,35,10.20
2007,04,27,00,36,10.20
2007,04,27,00,37,10.20
2007,04,27,00,38,10.20
2007,04,27,00,39,10.20
2007,04,27,00,40,10.20
2007,04,27,00,41,10.20
2007,04,27,00,42,10.20
2007,04,27,00,43,10.20
2007,04,27,00,44,10.20
2007,04,27,00,45,10.20
2007,04,27,00,46,10.20
2007,04,27,00,47,10.20
2007,04,27,00,48,10.20
2007,04,27,00,49,10.20
2007,04,27,00,50,10.20
2007,04,27,00,51,10.20
2007,04,27,00,52,10.20
2007,04,27,00,53,10.20
2007,04,27,00,54,10.20
2007,04,27,00,55,10.10
2007,04,27,00,56,10.10
2007,04,27,00,57,10.10
2007,04,27,00,58,10.10
2007,04,27,00,59,10.10
2007,04,27,01,00,10.10
2007,04,27,01,01,10.10
2007,04,27,01,02,10.10
2007,04,27,01,03,10.10
2007,04,27,01,04,10.10
2007,04,27,01,05,10.10
2007,04,27,01,06,10.10
2007,04,27,01,07,10.10
2007,04,27,01,08,10.20
2007,04,27,01,09,10.20
2007,04,27,01,10,10.20
2007,04,27,01,11,10.20
2007,04,27,01,12,10.20
2007,04,27,01,13,10.20
2007,04,27,01,14,10.20
2007,04,27,01,15,10.20
2007,04,27,01,16,10.20
2007,04,27,01,17,10.20
2007,04,27,01,18,10.20
2007,04,27,01,19,10.20
2007,04,27,01,20,10.20
2007,04,27,01,21,10.20
2007,04,27,01,22,10.20
2007,04,27,01,23,10.20
2007,04,27,01,24,10.20
2007,04,27,01,25,10.20
2007,04,27,01,26,10.20
2007,04,27,01,27,10.30
2007,04,27,01,28,10.30
2007,04,27,01,29,10.30
2007,04,27,01,30,10.30
2007,04,27,01,31,10.30
2007,04,27,01,32,10.30
2007,04,27,01,33,10.30
2007,04,27,01,34,10.30
2007,04,27,01,35,10.30
2007,04,27,01,36,10.30
2007,04,27,01,37,10.30
2007,04,27,01,38,10.30
2007,04,27,01,39,10.30
2007,04,27,01,40,10.30
2007,04,27,01,41,10.30
2007,04,27,01,42,10.30
2007,04,27,01,43,10.30
2007,04,27,01,44,10.30
2007,04,27,01,45,10.30
2007,04,27,01,46,10.30
2007,04,27,01,47,10.30
2007,04,27,01,48,10.30
2007,04,27,01,49,10.30
2007,04,27,01,50,10.30
2007,04,27,01,51,10.30
2007,04,27,01,52,10.30
2007,04,27,01,53,10.30
2007,04,27,01,54,10.30
2007,04,27,01,55,10.30
2007,04,27,01,56,10.30
2007,04,27,01,57,10.30
2007,04,27,01,58,10.30
2007,04,27,01,59,10.30
2007,04,27,02,00,10.30
2007,04,27,02,01,10.30
2007,04,27,02,02,10.30
2007,04,27,02,03,10.30
2007,04,27,02,04,10.30
2007,04,27,02,05,10.30
2007,04,27,02,06,10.30
2007,04,27,02,07,10.30
2007,04,27,02,08,10.30
2007,04,27,02,09,10.30
2007,04,27,02,10,10.30
2007,04,27,02,11,10.30
2007,04,27,02,12,10.30
2007,04,27,02,13,10.30
2007,04,27,02,14,10.30
2007,04,27,02,15,10.30
2007,04,27,02,16,10.30
2007,04,27,02,17,10.30
2007,04,27,02,18,10.30
2007,04,27,02,19,10.30
2007,04,27,02,20,10.30
2007,04,27,02,21,10.30
2007,04,27,02,22,10.30
2007,04,27,02,23,10.30
2007,04,27,02,24,10.30
2007,04,27,02,25,10.30
2007,04,27,02,26,10.30
2007,04,27,02,27,10.30
2007,04,27,02,28,10.30
2007,04,27,02,29,10.30
2007,04,27,02,30,10.30
2007,04,27,02,31,10.30
2007,04,27,02,32,10.30
2007,04,27,02,33,10.30
2007,04,27,02,34,10.30
2007,04,27,02,35,10.30
2007,04,27,02,36,10.30
2007,04,27,02,37,10.30
2007,04,27,02,38,10.30
2007,04,27,02,39,10.30
2007,04,27,02,40,10.20
2007,04,27,02,41,10.20
2007,04,27,02,42,10.20
2007,04,27,02,43,10.20
2007,04,27,02,44,10.20
2007,04,27,02,45,10.20
2007,04,27,02,46,10.30
2007,04,27,02,47,10.30
2007,04,27,02,48,10.30
2007,04,27,02,49,10.30
2007,04,27,02,50,10.30
2007,04,27,02,51,10.30
2007,04,27,02,52,10.30
2007,04,27,02,53,10.30
2007,04,27,02,54,10.30
2007,04,27,02,55,10.30
2007,04,27,02,56,10.30
2007,04,27,02,57,10.30
2007,04,27,02,58,10.30
2007,04,27,02,59,10.30
2007,04,27,03,00,10.30
2007,04,27,03,01,10.30
2007,04,27,03,02,10.30
2007,04,27,03,03,10.30
2007,04,27,03,04,10.30
2007,04,27,03,05,10.30
2007,04,27,03,06,10.30
2007,04,27,03,07,10.30
2007,04,27,03,08,10.30
2007,04,27,03,09,10.30
2007,04,27,03,10,10.30
2007,04,27,03,11,10.30
2007,04,27,03,12,10.30
2007,04,27,03,13,10.30
2007,04,27,03,14,10.30
2007,04,27,03,15,10.30
2007,04,27,03,16,10.30
2007,04,27,03,17,10.30
2007,04,27,03,18,10.30
2007,04,27,03,19,10.30
2007,04,27,03,20,10.30
2007,04,27,03,21,10.30
2007,04,27,03,22,10.30
2007,04,27,03,23,10.30
2007,04,27,03,24,10.30
2007,04,27,03,25,10.30
2007,04,27,03,26,10.30
2007,04,27,03,27,10.30
2007,04,27,03,28,10.30
2007,04,27,03,29,10.30
2007,04,27,03,30,10.30
2007,04,27,03,31,10.30
2007,04,27,03,32,10.30
2007,04,27,03,33,10.30
2007,04,27,03,34,10.30
2007,04,27,03,35,10.30
2007,04,27,03,36,10.30
2007,04,27,03,37,10.30
2007,04,27,03,38,10.30
2007,04,27,03,39,10.30
2007,04,27,03,40,10.30
2007,04,27,03,41,10.30
2007,04,27,03,42,10.30
2007,04,27,03,43,10.30
2007,04,27,03,44,10.30
2007,04,27,03,45,10.30
2007,04,27,03,46,10.30
2007,04,27,03,47,10.30
2007,04,27,03,48,10.30
2007,04,27,03,49,10.30
2007,04,27,03,50,10.30
2007,04,27,03,51,10.30
2007,04,27,03,52,10.30
2007,04,27,03,53,10.30
2007,04,27,03,54,10.30
2007,04,27,03,55,10.30
2007,04,27,03,56,10.30
2007,04,27,03,57,10.30
2007,04,27,03,58,10.30
2007,04,27,03,59,10.30
2007,04,27,04,00,10.30
2007,04,27,04,01,10.30
2007,04,27,04,02,10.30
2007,04,27,04,03,10.30
2007,04,27,04,04,10.30
2007,04,27,04,05,10.30
2007,04,27,04,06,10.30
2007,04,27,04,07,10.30
2007,04,27,04,08,10.30
2007,04,27,04,09,10.30
2007,04,27,04,10,10.30
2007,04,27,04,11,10.30
2007,04,27,04,12,10.30
2007,04,27,04,13,10.20
2007,04,27,04,14,10.20
2007,04,27,04,15,10.20
2007,04,27,04,16,10.20
2007,04,27,04,17,10.20
2007,04,27,04,18,10.20
2007,04,27,04,19,10.20
2007,04,27,04,20,10.20
2007,04,27,04,21,10.20
2007,04,27,04,22,10.10
2007,04,27,04,23,10.10
2007,04,27,04,24,10.10
2007,04,27,04,25,10.10
2007,04,27,04,26,10.10
2007,04,27,04,27,10.10
2007,04,27,04,28,10.10
2007,04,27,04,29,10.10
2007,04,27,04,30,10.10
2007,04,27,04,31,10.10
2007,04,27,04,32,10.10
2007,04,27,04,33,10.10
2007,04,27,04,34,10.00
2007,04,27,04,35,10.00
2007,04,27,04,36,10.00
2007,04,27,04,37,10.00
2007,04,27,04,38,10.10
2007,04,27,04,39,10.10
2007,04,27,04,40,10.00
2007,04,27,04,41,10.10
2007,04,27,04,42,10.10
2007,04,27,04,43,10.10
2007,04,27,04,44,10.10
2007,04,27,04,45,10.10
2007,04,27,04,46,10.10
2007,04,27,04,47,10.10
2007,04,27,04,48,10.10
2007,04,27,04,49,10.00
2007,04,27,04,50,10.00
2007,04,27,04,51,10.00
2007,04,27,04,52,10.00
2007,04,27,04,53,10.00
2007,04,27,04,54,10.00
2007,04,27,04,55,10.00
2007,04,27,04,56,10.00
2007,04,27,04,57,10.00
2007,04,27,04,58,10.00
2007,04,27,04,59,10.00
2007,04,27,05,00,10.00
2007,04,27,05,01,10.00
2007,04,27,05,02,10.00
2007,04,27,05,03,10.00
2007,04,27,05,04,10.00
2007,04,27,05,05,10.00
2007,04,27,05,06,10.00
2007,04,27,05,07,10.00
2007,04,27,05,08,10.00
2007,04,27,05,09,10.00
2007,04,27,05,10,10.00
2007,04,27,05,11,10.00
2007,04,27,05,12,10.00
2007,04,27,05,13,10.00
2007,04,27,05,14,10.00
2007,04,27,05,15,10.00
2007,04,27,05,16,10.00
2007,04,27,05,17,9.90
2007,04,27,05,18,9.90
2007,04,27,05,19,9.90
2007,04,27,05,20,9.90
2007,04,27,05,21,9.90
2007,04,27,05,22,9.90
2007,04,27,05,23,10.00
2007,04,27,05,24,10.00
2007,04,27,05,25,10.00
2007,04,27,05,26,10.00
2007,04,27,05,27,10.00
2007,04,27,05,28,10.00
2007,04,27,05,29,10.00
2007,04,27,05,30,10.00
2007,04,27,05,31,9.90
2007,04,27,05,32,9.90
2007,04,27,05,33,9.90
2007,04,27,05,34,10.00
2007,04,27,05,35,10.00
2007,04,27,05,36,10.00
2007,04,27,05,37,10.00
2007,04,27,05,38,10.00
2007,04,27,05,39,10.00
2007,04,27,05,40,10.00
2007,04,27,05,41,10.00
2007,04,27,05,42,10.00
2007,04,27,05,43,10.00
2007,04,27,05,44,10.00
2007,04,27,05,45,10.00
2007,04,27,05,46,10.00
2007,04,27,05,47,10.00
2007,04,27,05,48,10.00
2007,04,27,05,49,10.00
2007,04,27,05,50,10.00
2007,04,27,05,51,10.00
2007,04,27,05,52,10.00
2007,04,27,05,53,10.00
2007,04,27,05,54,10.00
2007,04,27,05,55,10.00
2007,04,27,05,56,10.00
2007,04,27,05,57,10.00
2007,04,27,05,58,10.00
2007,04,27,05,59,10.00
2007,04,27,06,00,10.00
2007,04,27,06,01,10.00
2007,04,27,06,02,10.00
2007,04,27,06,03,10.00
2007,04,27,06,04,10.00
2007,04,27,06,05,10.00
2007,04,27,06,06,9.90
2007,04,27,06,07,9.90
2007,04,27,06,08,9.90
2007,04,27,06,09,9.90
2007,04,27,06,10,9.90
2007,04,27,06,11,9.90
2007,04,27,06,12,9.90
2007,04,27,06,13,9.90
2007,04,27,06,14,9.80
2007,04,27,06,15,9.80
2007,04,27,06,16,9.80
2007,04,27,06,17,9.80
2007,04,27,06,18,9.80
2007,04,27,06,19,9.80
2007,04,27,06,20,9.80
2007,04,27,06,21,9.80
2007,04,27,06,22,9.80
2007,04,27,06,23,9.80
2007,04,27,06,24,9.80
2007,04,27,06,25,9.70
2007,04,27,06,26,9.70
2007,04,27,06,27,9.70
2007,04,27,06,28,9.70
2007,04,27,06,29,9.70
2007,04,27,06,30,9.70
2007,04,27,06,31,9.70
2007,04,27,06,32,9.70
2007,04,27,06,33,9.70
2007,04,27,06,34,9.70
2007,04,27,06,35,9.70
2007,04,27,06,36,9.70
2007,04,27,06,37,9.70
2007,04,27,06,38,9.60
2007,04,27,06,39,9.60
2007,04,27,06,40,9.60
2007,04,27,06,41,9.60
2007,04,27,06,42,9.60
2007,04,27,06,43,9.60
2007,04,27,06,44,9.60
2007,04,27,06,45,9.60
2007,04,27,06,46,9.60
2007,04,27,06,47,9.60
2007,04,27,06,48,9.60
2007,04,27,06,49,9.60
2007,04,27,06,50,9.60
2007,04,27,06,51,9.60
2007,04,27,06,52,9.60
2007,04,27,06,53,9.60
2007,04,27,06,54,9.60
2007,04,27,06,55,9.60
2007,04,27,06,56,9.60
2007,04,27,06,57,9.60
2007,04,27,06,58,9.60
2007,04,27,06,59,9.60
2007,04,27,07,00,9.60
2007,04,27,07,01,9.60
2007,04,27,07,02,9.60
2007,04,27,07,03,9.60
2007,04,27,07,04,9.60
2007,04,27,07,05,9.60
2007,04,27,07,06,9.60
2007,04,27,07,07,9.60
2007,04,27,07,08,9.60
2007,04,27,07,09,9.60
2007,04,27,07,10,9.60
2007,04,27,07,11,9.60
2007,04,27,07,12,9.60
2007,04,27,07,13,9.60
2007,04,27,07,14,9.60
2007,04,27,07,15,9.60
2007,04,27,07,16,9.60
2007,04,27,07,17,9.60
2007,04,27,07,18,9.60
2007,04,27,07,19,9.60
2007,04,27,07,20,9.60
2007,04,27,07,21,9.60
2007,04,27,07,22,9.60
2007,04,27,07,23,9.60
2007,04,27,07,24,9.60
2007,04,27,07,25,9.60
2007,04,27,07,26,9.60
2007,04,27,07,27,9.60
2007,04,27,07,28,9.60
2007,04,27,07,29,9.60
2007,04,27,07,30,9.60
2007,04,27,07,31,9.60
2007,04,27,07,32,9.60
2007,04,27,07,33,9.60
2007,04,27,07,34,9.60
2007,04,27,07,35,9.60
2007,04,27,07,36,9.60
2007,04,27,07,37,9.60
2007,04,27,07,38,9.60
2007,04,27,07,39,9.60
2007,04,27,07,40,9.60
2007,04,27,07,41,9.60
2007,04,27,07,42,9.60
2007,04,27,07,43,9.60
2007,04,27,07,44,9.60
2007,04,27,07,45,9.60
2007,04,27,07,46,9.60
2007,04,27,07,47,9.60
2007,04,27,07,48,9.60
2007,04,27,07,49,9.60
2007,04,27,07,50,9.60
2007,04,27,07,51,9.60
2007,04,27,07,52,9.60
2007,04,27,07,53,9.60
2007,04,27,07,54,9.60
2007,04,27,07,55,9.60
2007,04,27,07,56,9.60
2007,04,27,07,57,9.60
2007,04,27,07,58,9.60
2007,04,27,07,59,9.60
2007,04,27,08,00,9.60
2007,04,27,08,01,9.60
2007,04,27,08,02,9.60
2007,04,27,08,03,9.60
2007,04,27,08,04,9.60
2007,04,27,08,05,9.60
2007,04,27,08,06,9.60
2007,04,27,08,07,9.60
2007,04,27,08,08,9.60
2007,04,27,08,09,9.60
2007,04,27,08,10,9.70
2007,04,27,08,11,9.70
2007,04,27,08,12,9.70
2007,04,27,08,13,9.70
2007,04,27,08,14,9.70
2007,04,27,08,15,9.70
2007,04,27,08,16,9.70
2007,04,27,08,17,9.70
2007,04,27,08,18,9.70
2007,04,27,08,19,9.70
2007,04,27,08,20,9.70
2007,04,27,08,21,9.70
2007,04,27,08,22,9.70
2007,04,27,08,23,9.70
2007,04,27,08,24,9.70
2007,04,27,08,25,9.70
2007,04,27,08,26,9.70
2007,04,27,08,27,9.70
2007,04,27,08,28,9.70
2007,04,27,08,29,9.70
2007,04,27,08,30,9.70
2007,04,27,08,31,9.70
2007,04,27,08,32,9.70
2007,04,27,08,33,9.70
2007,04,27,08,34,9.70
2007,04,27,08,35,9.70
2007,04,27,08,36,9.70
2007,04,27,08,37,9.70
2007,04,27,08,38,9.70
2007,04,27,08,39,9.70
2007,04,27,08,40,9.70
2007,04,27,08,41,9.70
2007,04,27,08,42,9.70
2007,04,27,08,43,9.70
2007,04,27,08,44,9.70
2007,04,27,08,45,9.70
2007,04,27,08,46,9.70
2007,04,27,08,47,9.70
2007,04,27,08,48,9.70
2007,04,27,08,49,9.70
2007,04,27,08,50,9.70
2007,04,27,08,51,9.70
2007,04,27,08,52,9.70
2007,04,27,08,53,9.70
2007,04,27,08,54,9.70
2007,04,27,08,55,9.70
2007,04,27,08,56,9.70
2007,04,27,08,57,9.70
2007,04,27,08,58,9.70
2007,04,27,08,59,9.70
2007,04,27,09,00,9.70
2007,04,27,09,01,9.70
2007,04,27,09,02,9.70
2007,04,27,09,03,9.70
2007,04,27,09,04,9.70
2007,04,27,09,05,9.80
2007,04,27,09,06,9.80
2007,04,27,09,07,9.80
2007,04,27,09,08,9.80
2007,04,27,09,09,9.80
2007,04,27,09,10,9.80
2007,04,27,09,11,9.80
2007,04,27,09,12,9.80
2007,04,27,09,13,9.80
2007,04,27,09,14,9.80
2007,04,27,09,15,9.80
2007,04,27,09,16,9.80
2007,04,27,09,17,9.80
2007,04,27,09,18,9.80
2007,04,27,09,19,9.80
2007,04,27,09,20,9.80
2007,04,27,09,21,9.80
2007,04,27,09,22,9.80
2007,04,27,09,23,9.80
2007,04,27,09,24,9.80
2007,04,27,09,25,9.80
2007,04,27,09,26,9.80
2007,04,27,09,27,9.80
2007,04,27,09,28,9.80
2007,04,27,09,29,9.90
2007,04,27,09,30,9.90
2007,04,27,09,31,9.90
2007,04,27,09,32,9.90
2007,04,27,09,33,9.90
2007,04,27,09,34,9.90
2007,04,27,09,35,9.90
2007,04,27,09,36,9.90
2007,04,27,09,37,9.90
2007,04,27,09,38,9.90
2007,04,27,09,39,9.90
2007,04,27,09,40,9.90
2007,04,27,09,41,9.90
2007,04,27,09,42,9.90
2007,04,27,09,43,9.90
2007,04,27,09,44,9.90
2007,04,27,09,45,9.90
2007,04,27,09,46,9.90
2007,04,27,09,47,10.00
2007,04,27,09,48,10.00
2007,04,27,09,49,10.00
2007,04,27,09,50,10.00
2007,04,27,09,51,10.10
2007,04,27,09,52,10.10
2007,04,27,09,53,10.10
2007,04,27,09,54,10.10
2007,04,27,09,55,10.10
2007,04,27,09,56,10.10
2007,04,27,09,57,10.10
2007,04,27,09,58,10.10
2007,04,27,09,59,10.20
2007,04,27,10,00,10.20
2007,04,27,10,01,10.20
2007,04,27,10,02,10.20
2007,04,27,10,03,10.20
2007,04,27,10,04,10.20
2007,04,27,10,05,10.20
2007,04,27,10,06,10.20
2007,04,27,10,07,10.20
2007,04,27,10,08,10.30
2007,04,27,10,09,10.30
2007,04,27,10,10,10.30
2007,04,27,10,11,10.30
2007,04,27,10,12,10.30
2007,04,27,10,13,10.30
2007,04,27,10,14,10.30
2007,04,27,10,15,10.30
2007,04,27,10,16,10.40
2007,04,27,10,17,10.40
2007,04,27,10,18,10.40
2007,04,27,10,19,10.40
2007,04,27,10,20,10.40
2007,04,27,10,21,10.40
2007,04,27,10,22,10.40
2007,04,27,10,23,10.40
2007,04,27,10,24,10.50
2007,04,27,10,25,10.50
2007,04,27,10,26,10.50
2007,04,27,10,27,10.50
2007,04,27,10,28,10.60
2007,04,27,10,29,10.60
2007,04,27,10,30,10.60
2007,04,27,10,31,10.60
2007,04,27,10,32,10.60
2007,04,27,10,33,10.60
2007,04,27,10,34,10.60
2007,04,27,10,35,10.60
2007,04,27,10,36,10.60
2007,04,27,10,37,10.60
2007,04,27,10,38,10.60
2007,04,27,10,39,10.50
2007,04,27,10,40,10.50
2007,04,27,10,41,10.50
2007,04,27,10,42,10.50
2007,04,27,10,43,10.50
2007,04,27,10,44,10.50
2007,04,27,10,45,10.60
2007,04,27,10,46,10.60
2007,04,27,10,47,10.60
2007,04,27,10,48,10.60
2007,04,27,10,49,10.60
2007,04,27,10,50,10.60
2007,04,27,10,51,10.60
2007,04,27,10,52,10.60
2007,04,27,10,53,10.60
2007,04,27,10,54,10.60
2007,04,27,10,55,10.60
2007,04,27,10,56,10.60
2007,04,27,10,57,10.60
2007,04,27,10,58,10.60
2007,04,27,10,59,10.60
2007,04,27,11,00,10.60
2007,04,27,11,01,10.60
2007,04,27,11,02,10.60
2007,04,27,11,03,10.60
2007,04,27,11,04,10.60
2007,04,27,11,05,10.60
2007,04,27,11,06,10.60
2007,04,27,11,07,10.60
2007,04,27,11,08,10.50
2007,04,27,11,09,10.50
2007,04,27,11,10,10.50
2007,04,27,11,11,10.50
2007,04,27,11,12,10.50
2007,04,27,11,13,10.60
2007,04,27,11,14,10.60
2007,04,27,11,15,10.60
2007,04,27,11,16,10.60
2007,04,27,11,17,10.60
2007,04,27,11,18,10.60
2007,04,27,11,19,10.60
2007,04,27,11,20,10.70
2007,04,27,11,21,10.70
2007,04,27,11,22,10.70
2007,04,27,11,23,10.70
2007,04,27,11,24,10.80
2007,04,27,11,25,10.80
2007,04,27,11,26,10.80
2007,04,27,11,27,10.80
2007,04,27,11,28,10.80
2007,04,27,11,29,10.80
2007,04,27,11,30,10.80
2007,04,27,11,31,10.80
2007,04,27,11,32,10.80
2007,04,27,11,33,10.80
2007,04,27,11,34,10.80
2007,04,27,11,35,10.80
2007,04,27,11,36,10.80
2007,04,27,11,37,10.80
2007,04,27,11,38,10.90
2007,04,27,11,39,10.90
2007,04,27,11,40,10.90
2007,04,27,11,41,10.90
2007,04,27,11,42,11.00
2007,04,27,11,43,11.00
2007,04,27,11,44,11.10
2007,04,27,11,45,11.10
2007,04,27,11,46,11.10
2007,04,27,11,47,11.10
2007,04,27,11,48,11.10
2007,04,27,11,49,11.20
2007,04,27,11,50,11.20
2007,04,27,11,51,11.20
2007,04,27,11,52,11.20
2007,04,27,11,53,11.10
2007,04,27,11,54,11.10
2007,04,27,11,55,11.10
2007,04,27,11,56,11.10
2007,04,27,11,57,11.10
2007,04,27,11,58,11.10
2007,04,27,11,59,11.10
2007,04,27,12,00,11.10
2007,04,27,12,01,11.20
2007,04,27,12,02,11.20
2007,04,27,12,03,11.20
2007,04,27,12,04,11.20
2007,04,27,12,05,11.20
2007,04,27,12,06,11.10
2007,04,27,12,07,11.10
2007,04,27,12,08,11.10
2007,04,27,12,09,11.10
2007,04,27,12,10,11.10
2007,04,27,12,11,11.10
2007,04,27,12,12,11.10
2007,04,27,12,13,11.10
2007,04,27,12,14,11.10
2007,04,27,12,15,11.10
2007,04,27,12,16,11.10
2007,04,27,12,17,11.00
2007,04,27,12,18,11.00
2007,04,27,12,19,11.00
2007,04,27,12,20,11.00
2007,04,27,12,21,11.00
2007,04,27,12,22,11.00
2007,04,27,12,23,11.00
2007,04,27,12,24,11.00
2007,04,27,12,25,11.00
2007,04,27,12,26,11.00
2007,04,27,12,27,11.00
2007,04,27,12,28,11.00
2007,04,27,12,29,11.00
2007,04,27,12,30,11.00
2007,04,27,12,31,11.00
2007,04,27,12,32,11.00
2007,04,27,12,33,11.00
2007,04,27,12,34,11.00
2007,04,27,12,35,11.00
2007,04,27,12,36,10.90
2007,04,27,12,37,11.00
2007,04,27,12,38,11.00
2007,04,27,12,39,11.00
2007,04,27,12,40,10.90
2007,04,27,12,41,10.90
2007,04,27,12,42,10.90
2007,04,27,12,43,10.90
2007,04,27,12,44,11.00
2007,04,27,12,45,10.90
2007,04,27,12,46,10.90
2007,04,27,12,47,10.90
2007,04,27,12,48,10.90
2007,04,27,12,49,10.90
2007,04,27,12,50,11.00
2007,04,27,12,51,11.00
2007,04,27,12,52,11.00
2007,04,27,12,53,11.00
2007,04,27,12,54,11.00
2007,04,27,12,55,11.00
2007,04,27,12,56,11.00
2007,04,27,12,57,11.00
2007,04,27,12,58,11.10
2007,04,27,12,59,11.10
2007,04,27,13,00,11.10
2007,04,27,13,01,11.10
2007,04,27,13,02,11.10
2007,04,27,13,03,11.10
2007,04,27,13,04,11.10
2007,04,27,13,05,11.10
2007,04,27,13,06,11.10
2007,04,27,13,07,11.10
2007,04,27,13,08,11.20
2007,04,27,13,09,11.20
2007,04,27,13,10,11.20
2007,04,27,13,11,11.20
2007,04,27,13,12,11.10
2007,04,27,13,13,11.20
2007,04,27,13,14,11.20
2007,04,27,13,15,11.20
2007,04,27,13,16,11.20
2007,04,27,13,17,11.20
2007,04,27,13,18,11.30
2007,04,27,13,19,11.30
2007,04,27,13,20,11.40
2007,04,27,13,21,11.40
2007,04,27,13,22,11.40
2007,04,27,13,23,11.40
2007,04,27,13,24,11.40
2007,04,27,13,25,11.40
2007,04,27,13,26,11.40
2007,04,27,13,27,11.30
2007,04,27,13,28,11.30
2007,04,27,13,29,11.30
2007,04,27,13,30,11.30
2007,04,27,13,31,11.30
2007,04,27,13,32,11.30
2007,04,27,13,33,11.40
2007,04,27,13,34,11.40
2007,04,27,13,35,11.50
2007,04,27,13,36,11.50
2007,04,27,13,37,11.50
2007,04,27,13,38,11.60
2007,04,27,13,39,11.60
2007,04,27,13,40,11.60
2007,04,27,13,41,11.60
2007,04,27,13,42,11.60
2007,04,27,13,43,11.60
2007,04,27,13,44,11.60
2007,04,27,13,45,11.60
2007,04,27,13,46,11.50
2007,04,27,13,47,11.50
2007,04,27,13,48,11.50
2007,04,27,13,49,11.40
2007,04,27,13,50,11.40
2007,04,27,13,51,11.40
2007,04,27,13,52,11.40
2007,04,27,13,53,11.40
2007,04,27,13,54,11.40
2007,04,27,13,55,11.40
2007,04,27,13,56,11.40
2007,04,27,13,57,11.40
2007,04,27,13,58,11.30
2007,04,27,13,59,11.30
2007,04,27,14,00,11.30
2007,04,27,14,01,11.30
2007,04,27,14,02,11.30
2007,04,27,14,03,11.30
2007,04,27,14,04,11.30
2007,04,27,14,05,11.30
2007,04,27,14,06,11.30
2007,04,27,14,07,11.30
2007,04,27,14,08,11.30
2007,04,27,14,09,11.30
2007,04,27,14,10,11.30
2007,04,27,14,11,11.30
2007,04,27,14,12,11.30
2007,04,27,14,13,11.30
2007,04,27,14,14,11.30
2007,04,27,14,15,11.30
2007,04,27,14,16,11.30
2007,04,27,14,17,11.30
2007,04,27,14,18,11.30
2007,04,27,14,19,11.30
2007,04,27,14,20,11.30
2007,04,27,14,21,11.30
2007,04,27,14,22,11.30
2007,04,27,14,23,11.30
2007,04,27,14,24,11.40
2007,04,27,14,25,11.30
2007,04,27,14,26,11.30
2007,04,27,14,27,11.30
2007,04,27,14,28,11.30
2007,04,27,14,29,11.40
2007,04,27,14,30,11.40
2007,04,27,14,31,11.40
2007,04,27,14,32,11.40
2007,04,27,14,33,11.40
2007,04,27,14,34,11.40
2007,04,27,14,35,11.50
2007,04,27,14,36,11.50
2007,04,27,14,37,11.60
2007,04,27,14,38,11.60
2007,04,27,14,39,11.70
2007,04,27,14,40,11.80
2007,04,27,14,41,11.80
2007,04,27,14,42,11.90
2007,04,27,14,43,11.90
2007,04,27,14,44,11.90
2007,04,27,14,45,11.90
2007,04,27,14,46,12.00
2007,04,27,14,47,12.00
2007,04,27,14,48,12.10
2007,04,27,14,49,12.10
2007,04,27,14,50,12.10
2007,04,27,14,51,12.00
2007,04,27,14,52,12.00
2007,04,27,14,53,12.10
2007,04,27,14,54,12.10
2007,04,27,14,55,12.10
2007,04,27,14,56,12.10
2007,04,27,14,57,12.20
2007,04,27,14,58,12.20
2007,04,27,14,59,12.20
2007,04,27,15,00,12.20
2007,04,27,15,01,12.20
2007,04,27,15,02,12.30
2007,04,27,15,03,12.30
2007,04,27,15,04,12.30
2007,04,27,15,05,12.40
2007,04,27,15,06,12.50
2007,04,27,15,07,12.50
2007,04,27,15,08,12.50
2007,04,27,15,09,12.60
2007,04,27,15,10,12.60
2007,04,27,15,11,12.60
2007,04,27,15,12,12.70
2007,04,27,15,13,12.70
2007,04,27,15,14,12.70
2007,04,27,15,15,12.70
2007,04,27,15,16,12.80
2007,04,27,15,17,12.80
2007,04,27,15,18,12.80
2007,04,27,15,19,12.90
2007,04,27,15,20,12.90
2007,04,27,15,21,13.00
2007,04,27,15,22,13.10
2007,04,27,15,23,13.10
2007,04,27,15,24,13.20
2007,04,27,15,25,13.20
2007,04,27,15,26,13.30
2007,04,27,15,27,13.30
2007,04,27,15,28,13.30
2007,04,27,15,29,13.30
2007,04,27,15,30,13.40
2007,04,27,15,31,13.40
2007,04,27,15,32,13.40
2007,04,27,15,33,13.40
2007,04,27,15,34,13.40
2007,04,27,15,35,13.50
2007,04,27,15,36,13.50
2007,04,27,15,37,13.60
2007,04,27,15,38,13.70
2007,04,27,15,39,13.70
2007,04,27,15,40,13.80
2007,04,27,15,41,13.80
2007,04,27,15,42,13.90
2007,04,27,15,43,13.90
2007,04,27,15,44,14.00
2007,04,27,15,45,14.00
2007,04,27,15,46,14.00
2007,04,27,15,47,14.10
2007,04,27,15,48,14.10
2007,04,27,15,49,14.20
2007,04,27,15,50,14.20
2007,04,27,15,51,14.30
2007,04,27,15,52,14.30
2007,04,27,15,53,14.40
2007,04,27,15,54,14.40
2007,04,27,15,55,14.40
2007,04,27,15,56,14.40
2007,04,27,15,57,14.40
2007,04,27,15,58,14.40
2007,04,27,15,59,14.40
2007,04,27,16,00,14.40
2007,04,27,16,01,14.40
2007,04,27,16,02,14.30
2007,04,27,16,03,14.30
2007,04,27,16,04,14.30
2007,04,27,16,05,14.30
2007,04,27,16,06,14.30
2007,04,27,16,07,14.30
2007,04,27,16,08,14.30
2007,04,27,16,09,14.30
2007,04,27,16,10,14.30
2007,04,27,16,11,14.30
2007,04,27,16,12,14.30
2007,04,27,16,13,14.30
2007,04,27,16,14,14.20
2007,04,27,16,15,14.20
2007,04,27,16,16,14.10
2007,04,27,16,17,14.10
2007,04,27,16,18,14.10
2007,04,27,16,19,14.10
2007,04,27,16,20,14.10
2007,04,27,16,21,14.20
2007,04,27,16,22,14.20
2007,04,27,16,23,14.30
2007,04,27,16,24,14.30
2007,04,27,16,25,14.40
2007,04,27,16,26,14.50
2007,04,27,16,27,14.50
2007,04,27,16,28,14.60
2007,04,27,16,29,14.60
2007,04,27,16,30,14.70
2007,04,27,16,31,14.70
2007,04,27,16,32,14.80
2007,04,27,16,33,14.80
2007,04,27,16,34,14.70
2007,04,27,16,35,14.70
2007,04,27,16,36,14.60
2007,04,27,16,37,14.60
2007,04,27,16,38,14.60
2007,04,27,16,39,14.50
2007,04,27,16,40,14.50
2007,04,27,16,41,14.50
2007,04,27,16,42,14.50
2007,04,27,16,43,14.50
2007,04,27,16,44,14.50
2007,04,27,16,45,14.50
2007,04,27,16,46,14.50
2007,04,27,16,47,14.40
2007,04,27,16,48,14.30
2007,04,27,16,49,14.30
2007,04,27,16,50,14.30
2007,04,27,16,51,14.30
2007,04,27,16,52,14.30
2007,04,27,16,53,14.30
2007,04,27,16,54,14.30
2007,04,27,16,55,14.30
2007,04,27,16,56,14.30
2007,04,27,16,57,14.20
2007,04,27,16,58,14.20
2007,04,27,16,59,14.10
2007,04,27,17,00,14.10
2007,04,27,17,01,14.00
2007,04,27,17,02,13.90
2007,04,27,17,03,13.90
2007,04,27,17,04,13.90
2007,04,27,17,05,13.90
2007,04,27,17,06,13.80
2007,04,27,17,07,13.80
2007,04,27,17,08,13.70
2007,04,27,17,09,13.70
2007,04,27,17,10,13.70
2007,04,27,17,11,13.60
2007,04,27,17,12,13.60
2007,04,27,17,13,13.60
2007,04,27,17,14,13.60
2007,04,27,17,15,13.60
2007,04,27,17,16,13.50
2007,04,27,17,17,13.60
2007,04,27,17,18,13.50
2007,04,27,17,19,13.50
2007,04,27,17,20,13.50
2007,04,27,17,21,13.40
2007,04,27,17,22,13.40
2007,04,27,17,23,13.30
2007,04,27,17,24,13.30
2007,04,27,17,25,13.20
2007,04,27,17,26,13.20
2007,04,27,17,27,13.20
2007,04,27,17,28,13.20
2007,04,27,17,29,13.20